STARLINK-32443, 61672

Orbit data source: Space-Track

STARLINK-32443, 61672 is a payload satellite owned by SpaceX/Seattle (US) in LEO that was launched on Sat, 26 Oct 2024 UTC via an FALCON 9 launch vehicle from the Air Force Eastern Test Range (AFETR). Payload-class satellites include a variety of spacecraft equipped with specific instruments for various scientific and technological missions. These include communications satellites like Starlink; space stations such as the ISS; scientific satellites like the Hubble; Earth observation satellites from companies like Planet Labs, Umbra, and HawkEye 360; GPS; miniature CubeSats for education and research; and military/defense satellites.

Loading next visibility...
Identifier
61672, 2024-193M
Orbit
LEO
Country
Flag of USUS
Related business
Manufacturer
SpaceX/Seattle
Mission
Operational Commercial Communications
Bus & Motor
STARLINK V2M, Unknown motor
Mass
730 kg wet, ~700 kg dry
Launch date (UTC)
2024-10-26 (1 year ago)
Launch vehicle
FALCON 9
Launch site
Air Force Eastern Test Range (AFETR)
Object type
Payload
Rocket body
Debris
Shape & HBR
Box + 2 Pan, 17.7 m
Radar Cross Section
33.884 m², Large (>1 m²)

Expand to show TLE details & history
Last TLE update: 5 hours ago

TLE from 5 hours ago
0 STARLINK-32443
1 61672U 24193M   25309.29986236 -.00000167  00000-0  64840-5 0  9997
2 61672  53.1602 308.6693 0000744  72.0924 288.0158 15.30197260 57485
Epoch: 2025-11-05T07:11Z
TLE epoch observation values (Epoch: 2025-11-05T07:11:48.107Z)
Latitude
-0.00003°
Longitude
155.94431°
Altitude
475.965 km
Speed
7.629 km/s
True Right ascension
20h 34m 40s
True Declination
0° 00' 00"
Sunlit
Object was in daylight at epoch
Visualization orbit readout
Latitude
Unknown
Longitude
Unknown
Altitude
Unknown
Speed
Unknown
Apparent Right ascension
Unknown
Apparent Declination
Unknown
Sunlit
N/A
Visualization observer readout
Local Sidereal Time
07:48:17
Azimuth
Unknown
Elevation
Unknown
Doppler factor
Unknown
Orbital elements
Apogee altitude
475.99 km
Perigee altitude
474.97 km
Semi-major axis
6,853.617 km
Eccentricity
0.00007
Inclination
53.1602°
RAAN
308.6693°
Arg. of periapsis
72.0924°
True anomaly
288.00769°
Mean anomaly
288.0158°
Eccentric anomaly
288.01175°
Mean motion
3.82528 °/min
Orbital period
94.11 mins
BSTAR
0.000006484
Loading maneuver chart data...
Computing Atmospheric mass density...
Loading historical data...
Loading historical data...
Loading historical data...
Loading historical data...
Loading historical data...
Loading historical data...
Loading historical data...

Documentation

Showing up to 5 results
|